Sunday, October 22, 2017, 8:41 PM EDT
Back to Local

KCQX, Chatham Municipal Airport

Location: Chatham, MA, United States Lat: 41.683
Local Time: 8:41 PM EDT ( 0:41 GMT) Lon: -70
Time Zone: US/Eastern Elev: 68 ft

Show me the last for .
Show Coded

Time T Td Feel RH Dir Speed Gust Alt SLP Vis Weather Sky Remarks
2017-10-22 20:11 60 60 - 100 200° 3 - 30.41 - 10 OVC005 None
2017-10-22 20:00 60 60 - 100 170° 3 - 30.41 - 10 OVC004 None
2017-10-22 19:52 60 60 - 100 Variable 5 - 30.41 30.41 9 OVC005 6-hr Min Temp (8pm): 60.1°F
6-hr Max Temp (8pm): 70.0°F
2017-10-22 19:38 60 60 - 100 Variable 3 - 30.41 - 8 BKN005 None
2017-10-22 18:52 61 61 - 100 - Calm - 30.41 30.41 10 FEW003 None
2017-10-22 18:41 61 61 - 100 200° 3 - 30.41 - 10 FEW003 None
2017-10-22 17:52 62 61 - 96 200° 5 - 30.40 30.40 10 CLR None
2017-10-22 16:52 65 62 - 90 220° 5 - 30.40 30.40 10 CLR None
2017-10-22 15:52 66 62 - 87 220° 6 - 30.40 30.40 10 CLR None
2017-10-22 14:52 68 62 - 81 - - - 30.40 30.40 10 CLR None
2017-10-22 13:52 70 61 - 73 210° 7 - 30.40 30.40 10 CLR 6-hr Min Temp (2pm): 55.9°F
6-hr Max Temp (2pm): 73.0°F
2017-10-22 12:52 71 61 76 70 - Calm - 30.40 30.41 10 CLR None
2017-10-22 11:52 70 63 - 78 220° 5 - 30.41 30.41 10 CLR None
2017-10-22 10:52 68 63 - 83 180° 3 - 30.42 30.42 10 CLR None
2017-10-22 09:52 65 62 - 90 220° 3 - 30.42 30.42 10 CLR None
2017-10-22 08:52 64 63 - 96 - Calm - 30.42 30.42 10 CLR None
2017-10-22 07:52 56 56 - 100 - Calm - 30.39 30.40 10 CLR 6-hr Min Temp (8am): 54.0°F
6-hr Max Temp (8am): 61.0°F
2017-10-22 06:52 55 55 - 100 240° 3 - 30.38 30.38 10 CLR None
2017-10-22 05:52 56 56 - 100 - Calm - 30.37 30.37 10 CLR None
2017-10-22 04:52 57 57 - 100 250° 3 - 30.36 30.36 10 CLR None
2017-10-22 03:52 59 59 - 100 240° 5 - 30.35 30.35 10 CLR None
2017-10-22 02:52 60 59 - 96 230° 6 - 30.35 30.35 10 CLR None
2017-10-22 01:52 61 59 - 93 230° 6 - 30.35 30.35 10 CLR 6-hr Min Temp (2am): 61.0°F
6-hr Max Temp (2am): 61.0°F
2017-10-22 00:52 61 59 - 93 230° 7 - 30.35 30.36 10 CLR 24-hr Min Temp (1am): 48.0°F
24-hr Max Temp (1am): 69.1°F
2017-10-21 23:52 61 59 - 93 230° 7 - 30.36 30.36 10 CLR None
2017-10-21 22:52 61 60 - 96 220° 7 - 30.35 30.36 10 CLR None
2017-10-21 21:52 61 59 - 93 220° 8 - 30.35 30.35 10 CLR None
2017-10-21 20:52 61 57 - 86 Variable 7 - 30.34 30.34 10 CLR None

Support USWX by starting your Amazon purchase here.